Pineville, WV

5:12 PM EDT on September 16, 2019 (GMT -0400)
Pineville

Weather History for KI16 - August, 2019

Change the Weather History Date:

Sunday, August 18, 2019

  Actual Average (WUND) Record (WUND)
Temperature  
Mean Temperature 79 °F -  
Max Temperature 95 °F - - (-1)
Min Temperature 63 °F - - (-1)
Cooling Degree Days 14    
Growing Degree Days 29 (Base 50)    
Moisture  
Dew Point 64 °F    
Average Humidity 69    
Maximum Humidity 98    
Minimum Humidity 30    
Precipitation  
Precipitation 0.00 in - - ()
Sea Level Pressure  
Sea Level Pressure 30.11 in    
Wind  
Wind Speed - (North)    
Max Wind Speed -    
Max Gust Speed -    
Visibility 10 miles    
Events      
Averages and records for this station are not official NWS values.
T = Trace of Precipitation, MM = Missing Value Source: NWS Daily Summary

Daily Weather History Graph

Daily Weather History Graph

Search for Another Location

Airport or City:

Astronomy

Aug. 18, 2019 Rise Set
Actual Time 6:44 AM EDT 8:15 PM EDT
Civil Twilight 6:16 AM EDT 8:42 PM EDT
Nautical Twilight 5:43 AM EDT 9:15 PM EDT
Astronomical Twilight 5:08 AM EDT 9:50 PM EDT
Moon 10:12 PM EDT (8/18) 9:25 AM EDT (8/18)
Length of Visible Light 14h 26m
Length of Day
13h 30m
Waning Gibbous, 91% of the Moon is Illuminated
Aug 18
Waning Gibbous
Aug 23
Last Quarter
Aug 30
New
Sep 5
First Quarter
Sep 14
Full

Hourly Weather History & Observations

Time (EDT) Temp. Heat Index Dew Point Humidity Pressure Visibility Wind Dir Wind Speed Gust Speed Precip Events Conditions
12:15 AM 68.2 °F - 65.8 °F 92% 30.12 in 10.0 mi North - - N/A   Clear
12:35 AM 68.0 °F - 65.8 °F 93% 30.11 in 10.0 mi North - - N/A   Clear
12:55 AM 67.3 °F - 65.3 °F 93% 30.11 in 10.0 mi North - - N/A   Clear
1:15 AM 67.3 °F - 65.3 °F 93% 30.11 in 10.0 mi North - - N/A   Clear
1:35 AM 66.7 °F - 64.9 °F 94% 30.11 in 10.0 mi North - - N/A   Clear
1:55 AM 66.9 °F - 65.3 °F 95% 30.10 in 10.0 mi North - - N/A   Clear
2:15 AM 66.7 °F - 65.1 °F 95% 30.10 in 10.0 mi North - - N/A   Clear
2:30 AM 66.2 °F - 64.4 °F 94% 30.10 in 10.0 mi North - - N/A   Clear
2:55 AM 65.7 °F - 64.4 °F 96% 30.10 in 10.0 mi North - - N/A   Clear
3:15 AM 65.5 °F - 64.6 °F 97% 30.09 in 10.0 mi North - - N/A   Clear
3:35 AM 65.3 °F - 64.4 °F 97% 30.10 in 10.0 mi North - - N/A   Clear
3:55 AM 65.3 °F - 64.4 °F 97% 30.10 in 10.0 mi North - - N/A   Clear
4:15 AM 65.3 °F - 64.4 °F 97% 30.10 in 10.0 mi North - - N/A   Clear
4:35 AM 64.9 °F - 64.2 °F 98% 30.09 in 10.0 mi North - - N/A   Clear
4:55 AM 64.9 °F - 64.2 °F 98% 30.10 in 10.0 mi North - - N/A   Clear
5:15 AM 64.4 °F - 63.7 °F 98% 30.11 in 10.0 mi North - - N/A   Clear
5:35 AM 64.4 °F - 63.7 °F 98% 30.11 in 10.0 mi North - - N/A   Clear
5:55 AM 64.0 °F - 63.3 °F 97% 30.11 in 10.0 mi North - - N/A   Clear
6:15 AM 63.9 °F - 63.1 °F 97% 30.11 in 10.0 mi North - - N/A   Clear
6:35 AM 64.0 °F - 63.5 °F 98% 30.12 in 10.0 mi North - - N/A   Clear
6:55 AM 63.9 °F - 63.1 °F 97% 30.12 in 10.0 mi North - - N/A   Clear
7:15 AM 63.7 °F - 63.1 °F 98% 30.13 in 10.0 mi North - - N/A   Clear
7:35 AM 64.4 °F - 63.7 °F 98% 30.13 in 10.0 mi North - - N/A   Clear
7:55 AM 65.3 °F - 64.6 °F 98% 30.13 in 10.0 mi North - - N/A   Clear
8:15 AM 66.6 °F - 65.5 °F 96% 30.13 in 10.0 mi North - - N/A   Clear
8:35 AM 68.9 °F - 65.7 °F 89% 30.13 in 10.0 mi North - - N/A   Clear
8:55 AM 70.9 °F - 66.2 °F 85% 30.14 in 10.0 mi North - - N/A   Clear
9:15 AM 72.5 °F - 67.3 °F 84% 30.14 in 10.0 mi North - - N/A   Clear
9:35 AM 76.6 °F - 67.8 °F 74% 30.14 in 10.0 mi North - - N/A   Clear
9:55 AM 80.1 °F 82.7 °F 68.0 °F 67% 30.14 in 10.0 mi North - - N/A   Clear
10:15 AM 82.0 °F 84.5 °F 67.1 °F 60% 30.15 in 10.0 mi North - - N/A   Clear
10:35 AM 83.8 °F 86.3 °F 66.7 °F 56% 30.15 in 10.0 mi North - - N/A   Clear
10:55 AM 84.0 °F 86.5 °F 66.7 °F 56% 30.16 in 10.0 mi North - - N/A   Clear
11:15 AM 85.8 °F 88.5 °F 66.7 °F 53% 30.16 in 10.0 mi North - - N/A   Clear
11:35 AM 87.1 °F 89.5 °F 66.4 °F 50% 30.15 in 10.0 mi North - - N/A   Clear
11:55 AM 88.0 °F 89.0 °F 63.9 °F 44% 30.14 in 10.0 mi North - - N/A   Clear
12:15 PM 89.8 °F 91.0 °F 63.9 °F 42% 30.14 in 10.0 mi North - - N/A   Clear
12:35 PM 89.6 °F 90.8 °F 63.7 °F 42% 30.14 in 10.0 mi North - - N/A   Clear
12:55 PM 90.7 °F 91.3 °F 62.8 °F 39% 30.14 in 10.0 mi North - - N/A   Clear
1:15 PM 90.3 °F 90.8 °F 62.4 °F 39% 30.13 in 10.0 mi North - - N/A   Clear
1:35 PM 91.6 °F 92.3 °F 62.6 °F 38% 30.13 in 10.0 mi North - - N/A   Scattered Clouds
1:55 PM 92.7 °F 93.2 °F 62.4 °F 36% 30.13 in 10.0 mi North - - N/A   Clear
2:15 PM 92.7 °F 93.2 °F 62.1 °F 36% 30.12 in 10.0 mi North - - N/A   Clear
2:35 PM 93.9 °F 94.8 °F 62.1 °F 35% 30.12 in 10.0 mi North - - N/A   Scattered Clouds
2:55 PM 94.1 °F 94.2 °F 60.8 °F 33% 30.11 in 10.0 mi North - - N/A   Scattered Clouds
3:15 PM 95.0 °F 94.4 °F 59.4 °F 30% 30.10 in 10.0 mi North - - N/A   Scattered Clouds
3:35 PM 95.0 °F 94.4 °F 59.2 °F 30% 30.09 in 10.0 mi North - - N/A   Clear
3:55 PM 95.4 °F 94.9 °F 59.4 °F 30% 30.09 in 10.0 mi North - - N/A   Clear
4:15 PM 94.3 °F 93.4 °F 58.8 °F 30% 30.09 in 10.0 mi North - - N/A   Clear
4:35 PM 94.1 °F 94.2 °F 61.0 °F 33% 30.08 in 10.0 mi North - - N/A   Clear
4:55 PM 92.7 °F 92.5 °F 60.6 °F 34% 30.07 in 10.0 mi North - - N/A   Clear
5:15 PM 94.1 °F 93.1 °F 58.5 °F 30% 30.07 in 10.0 mi North - - N/A   Clear
5:35 PM 93.7 °F 93.3 °F 59.9 °F 32% 30.06 in 10.0 mi North - - N/A   Clear
5:55 PM 92.8 °F 92.4 °F 59.7 °F 33% 30.06 in 10.0 mi North - - N/A   Clear
6:15 PM 89.6 °F 91.8 °F 65.5 °F 45% 30.07 in 10.0 mi North - - N/A   Clear
6:35 PM 89.1 °F 90.6 °F 64.2 °F 44% 30.06 in 10.0 mi North - - N/A   Scattered Clouds
6:55 PM 86.2 °F 87.9 °F 64.9 °F 49% 30.06 in 10.0 mi North - - N/A   Scattered Clouds
7:15 PM 82.9 °F 85.2 °F 66.4 °F 57% 30.06 in 10.0 mi North - - N/A   Clear
7:35 PM 80.8 °F 83.2 °F 66.9 °F 63% 30.06 in 10.0 mi North - - N/A   Clear
7:55 PM 79.7 °F - 67.3 °F 66% 30.06 in 10.0 mi North - - N/A   Clear
8:15 PM 79.3 °F - 67.1 °F 66% 30.07 in 10.0 mi North - - N/A   Clear
8:35 PM 77.7 °F - 67.6 °F 71% 30.07 in 10.0 mi North - - N/A   Clear
8:55 PM 76.3 °F - 67.1 °F 73% 30.07 in 10.0 mi North - - N/A   Clear
9:15 PM 75.4 °F - 65.5 °F 71% 30.08 in 10.0 mi North - - N/A   Clear
9:35 PM 74.3 °F - 64.8 °F 72% 30.09 in 10.0 mi North - - N/A   Clear
9:55 PM 73.2 °F - 65.3 °F 76% 30.09 in 10.0 mi North - - N/A   Clear
10:15 PM 72.1 °F - 64.8 °F 78% 30.09 in 10.0 mi North - - N/A   Clear
10:35 PM 71.4 °F - 64.8 °F 79% 30.10 in 10.0 mi North - - N/A   Clear
10:55 PM 70.7 °F - 64.8 °F 81% 30.10 in 10.0 mi North - - N/A   Clear
11:15 PM 70.3 °F - 64.9 °F 83% 30.10 in 10.0 mi North - - N/A   Clear
11:35 PM 69.8 °F - 65.1 °F 85% 30.11 in 10.0 mi North - - N/A   Clear
11:55 PM 69.3 °F - 65.3 °F 87% 30.11 in 10.0 mi North - - N/A   Clear